Powrót do katalogu

BREEZE-M DEB

LostHEO
NORAD 38562·DEBRIS·🇷🇺 Russia

Wystrzelony Feb 28, 2006 z Baikonur Cosmodrome

Loading…

Następne Przeloty (najbliższe 24 godziny)

TLE

NieaktualneSource: Space-Track

Epoka: Jul 11, 2021, 09:00 UTC

1 38562U 06006DC  21192.37518216  .00001322  00000-0  10062-2 0  9993
2 38562  51.7817 221.5207 4941022 228.8609  76.6694  5.56137630222427

Śledź BREEZE-M DEB w czasie rzeczywistym z AllMySat

Download on the App Store